"Pseudo-MPEC" for P10N8PX

Created 2019 Apr 22 3:07:18 UT using Find_Orb

Click here for an explanation of pseudo-MPECs

 
 Astrometry: 
     P10N8PX  C2019 04 145J994g_s-S*y_iw@bWT7:V(iGt/.6NQRk?f2%9?2CsKfpEO'S@u0F51
     P10N8PX  C2019 04 141PMAstrometry?AUpG-;fsMEfG10t\Pj(YK[SFEUdV,kOMGFNT;nF51
     P10N8PX  C2019 04 14(innj%Xd/.DBYYv%YQii7Z?'?l6Z;#/fmhE1*.?(PxLWuXFdo[)hF51
     P10N8PX KC2019 04 15HZR]Op`^].'\?1j_n@70Go+redacted;%oIN*SGUQy8Jy?--FiW3291
     P10N8PX KC2019 04 15eKSW[T@YOjbZw$click'RUE6PDU7+!Z12mQ^!bsUhniq^QQ[U2ge291
     P10N8PX  C2019 04 15.43452 15 28 34.17 +13 28 36.0    ~4FAm 21.8 GVNEOCPV06
     P10N8PX  C2019 04 15.43605 15 28 34.26 +13 28 37.1    ~4FAm 21.7 GVNEOCPV06
     P10N8PX  C2019 04 15.43758 15 28 34.37 +13 28 38.4    ~4FAm 21.5 GVNEOCPV06
     P10N8PX  C2019 04 15.43911 15 28 34.44 +13 28 39.6    ~4FAm 21.5 GVNEOCPV06
     P10N8PX KC2019 04 15m2!w0V5oWI[iqf'rNU'pIpg-GsBW+cBxvwv`SeVd4k-+WiW+D_Um291
     P10N8PX KC2019 04 16/BTWoPh!9dS5a)Pnn,X]Q?B..9,9HyHD-Y:]!oweHfLRtR]SLaZZ291
     P10N8PX KC2019 04 16TgMV@O!Nc;edhere0*2)0dy+eV7/c\KDYeC6_s7g6for,So*(Rom291
     P10N8PX KC2019 04 16,2b74q!qvygVdeFI87kNexplanationCDN9m3A(h,(Tnsi?t:pM[291
     P10N8PX KC2019 04 19.31103115 32 44.67 +14 18 58.8    ~4J8M 21.2 GVNEOCPH01
     P10N8PX KC2019 04 19.31894515 32 45.12 +14 19 04.8    ~4J8M 21.4 GVNEOCPH01
     P10N8PX KC2019 04 19.32656415 32 45.54 +14 19 10.6    ~4J8M 21.4 GVNEOCPH01
     P10N8PX KC2019 04 19.33163415 32 45.82 +14 19 14.4    ~4J8M 21.2 GVNEOCPH01

Station data:
(291) LPL/Spacewatch II  (N31.961669 W111.599905)  US/Arizona.  Observers J.
   V. Scotti, R. S. McMillan. 1.8-m f/2.7 reflector + CCD.
(F51) Pan-STARRS 1, Haleakala  (N20.707235 W156.255910)  US/Hawaii.
   Observers N. Primak, A. Schultz, S. Watters, J. Thiel, T. Goggia. Measurer
   PS1 Science Consortium. 1.8-m Ritchey-Chrétien + CCD.
(H01) Magdalena Ridge Observatory, Socorro  (N33.984833 W107.189333)  US/New
   Mexico.  Observers W. H. Ryan, E. V. Ryan. Measurer W. H. Ryan. 2.4-m
   f/8.9 reflector + CCD.
(V06) Catalina Sky Survey-Kuiper  (N32.416847 W110.732550)  US/Arizona.
   Observers T. A. Pruyne, B. M. Africano, E. J. Christensen, G. A. Farneth,
   D. C. Fuls, A. R. Gibbs, A. D. Grauer, H. Groeller, J. A. Johnson, R. A.
   Kowalski, S. M. Larson, G. J. Leonard, R. L. Seaman, F. C. Shelly. 1.55-m
   reflector + CCD.

Orbital elements:  P10N8PX
   Perihelion 2019 Jun 7.432325 +/- 1.09 TT = 10:22:32 (JD 2458641.932325)
Epoch 2019 Apr 19.0 TT = JDT 2458592.5   Earth MOID: 0.3320   Ju: 0.8036
M 350.23528417 +/- 1.5              Ma: 0.0824                AutoNEOCP
n   0.19753705 +/- 0.0298           Peri.  130.22186 +/- 3.6
a   2.91991583 +/- 0.293            Node   121.59000 +/- 2.4
e   0.5506439 +/- 0.0372            Incl.   10.44276 +/- 0.40
P   4.99                   H 21.4   G  0.15   U 10.4  
q 1.31208176 +/- 0.0265    Q 4.52774989 +/- 0.643
From 17 observations 2019 Apr. 14-19; mean residual 0".17
Residuals in arcseconds: 
190414 F51  .12+  .12+    190415 V06  .11-  .13-    190416 291  .25+  .04+    
190414 F51  .02-  .14+    190415 V06  .15+  .06-    190419 H01  .00   .04+    
190414 F51  .24-  .06+    190415 V06  .17-  .08-    190419 H01  .05+  .04+    
190415 291  .23+  .03-    190415 291  .13-  .10+    190419 H01  .08-  .08+    
190415 291  .19-  .16+    190416 291  .22+  .66-    190419 H01  .15-  .04+    
190415 V06  .08-  .01-    190416 291  .21+  .08+    

Ephemerides (geocentric):
Date (UTC) HH   RA              Dec         delta   r     elong  mag " sig PA
---- -- -- --  -------------   -----------  ------ ------ -----  --- ---- ---
2019 04 22 03  15 35 36.609   +14 53 01.29  .46582 1.4078 143.7 21.6 .241  14
2019 04 22 04  15 35 39.103   +14 53 30.24  .46562 1.4077 143.7 21.6 .226  15
2019 04 22 05  15 35 41.595   +14 53 59.16  .46541 1.4075 143.7 21.6 .211  17
2019 04 22 06  15 35 44.086   +14 54 28.04  .46521 1.4073 143.7 21.6 .195  18
2019 04 22 07  15 35 46.575   +14 54 56.89  .46501 1.4072 143.7 21.6 .180  20
2019 04 22 08  15 35 49.062   +14 55 25.69  .46481 1.4070 143.7 21.6 .165  23
2019 04 22 09  15 35 51.548   +14 55 54.46  .46461 1.4068 143.8 21.6 .149  26
2019 04 22 10  15 35 54.032   +14 56 23.19  .46441 1.4067 143.8 21.6 .134  30
2019 04 22 11  15 35 56.514   +14 56 51.88  .46420 1.4065 143.8 21.6 .120  35
2019 04 22 12  15 35 58.995   +14 57 20.54  .46400 1.4064 143.8 21.6 .106  42
2019 04 22 13  15 36 01.474   +14 57 49.15  .46380 1.4062 143.8 21.6 .094  50
2019 04 22 14  15 36 03.951   +14 58 17.73  .46360 1.4060 143.8 21.6 .085  61
2019 04 22 15  15 36 06.426   +14 58 46.27  .46340 1.4059 143.8 21.6 .079  74
2019 04 22 16  15 36 08.900   +14 59 14.77  .46320 1.4057 143.8 21.6 .078  89
2019 04 22 17  15 36 11.372   +14 59 43.23  .46300 1.4056 143.8 21.6 .082 103
2019 04 22 18  15 36 13.843   +15 00 11.65  .46280 1.4054 143.8 21.6 .091 116
2019 04 22 19  15 36 16.312   +15 00 40.04  .46260 1.4052 143.8 21.6 .104 126
2019 04 22 20  15 36 18.779   +15 01 08.38  .46240 1.4051 143.8 21.6 .119 134
2019 04 22 21  15 36 21.244   +15 01 36.69  .46220 1.4049 143.8 21.6 .137 140
2019 04 22 22  15 36 23.708   +15 02 04.96  .46200 1.4048 143.8 21.6 .156 144
2019 04 22 23  15 36 26.170   +15 02 33.18  .46180 1.4046 143.8 21.6 .176 148
2019 04 23 00  15 36 28.630   +15 03 01.37  .46160 1.4044 143.8 21.6 .198 151
2019 04 23 01  15 36 31.089   +15 03 29.52  .46140 1.4043 143.8 21.6 .220 153
2019 04 23 02  15 36 33.546   +15 03 57.63  .46121 1.4041 143.8 21.6 .243 155
2019 04 23 03  15 36 36.002   +15 04 25.70  .46101 1.4039 143.8 21.6 .266 157
2019 04 23 04  15 36 38.455   +15 04 53.73  .46081 1.4038 143.8 21.6 .290 158
2019 04 23 05  15 36 40.907   +15 05 21.72  .46061 1.4036 143.8 21.6 .315 160
2019 04 23 06  15 36 43.357   +15 05 49.66  .46041 1.4035 143.8 21.6 .340 161
2019 04 23 07  15 36 45.806   +15 06 17.57  .46022 1.4033 143.8 21.6 .365 162
2019 04 23 08  15 36 48.253   +15 06 45.44  .46002 1.4031 143.8 21.6 .392 162
2019 04 23 09  15 36 50.698   +15 07 13.27  .45982 1.4030 143.8 21.6 .418 163
2019 04 23 10  15 36 53.142   +15 07 41.06  .45963 1.4028 143.8 21.6 .446 164
2019 04 23 11  15 36 55.584   +15 08 08.80  .45943 1.4027 143.8 21.6 .473 164
2019 04 23 12  15 36 58.024   +15 08 36.51  .45923 1.4025 143.8 21.6 .502 165
2019 04 23 13  15 37 00.463   +15 09 04.17  .45904 1.4024 143.8 21.6 .530 165
2019 04 23 14  15 37 02.900   +15 09 31.80  .45884 1.4022 143.8 21.6 .559 165
2019 04 23 15  15 37 05.335   +15 09 59.38  .45864 1.4020 143.8 21.6 .589 166
2019 04 23 16  15 37 07.768   +15 10 26.92  .45845 1.4019 143.8 21.6 .619 166
2019 04 23 17  15 37 10.200   +15 10 54.42  .45825 1.4017 143.8 21.6 .650 166
2019 04 23 18  15 37 12.630   +15 11 21.88  .45806 1.4016 143.8 21.5 .681 167
2019 04 23 19  15 37 15.059   +15 11 49.30  .45786 1.4014 143.8 21.5 .713 167
2019 04 23 20  15 37 17.486   +15 12 16.67  .45767 1.4012 143.8 21.5 .745 167
2019 04 23 21  15 37 19.911   +15 12 44.01  .45747 1.4011 143.8 21.5 .777 167
2019 04 23 22  15 37 22.334   +15 13 11.30  .45728 1.4009 143.8 21.5 .811 168
2019 04 23 23  15 37 24.756   +15 13 38.55  .45708 1.4008 143.8 21.5 .844 168
2019 04 24 00  15 37 27.176   +15 14 05.76  .45689 1.4006 143.8 21.5 .878 168
2019 04 24 01  15 37 29.595   +15 14 32.92  .45670 1.4005 143.8 21.5 .913 168
2019 04 24 02  15 37 32.011   +15 15 00.04  .45650 1.4003 143.8 21.5 .948 168